Location: Bemmer
(51.5498°N, 5.6249°E)
Time: 16:25:49
(UTC+00:00)

Meteor 1-23 Rocket - Pass Details

Date: 03 March 2021
Orbit: 837 x 888 km, 81.3° (Epoch: 13 April)

Event Time Altitude Azimuth Distance (km) Brightness Sun altitude
Rises 19:20:16 0° 349° (N) 3,406 7.7 -19.1°
Reaches altitude 10° 19:22:44 10° 353° (N) 2,470 6.9 -19.5°
Maximum altitude 19:28:15 58° 73° (ENE) 980 4.2 -20.3°
Enters shadow 19:30:20 37° 134° (SE) 1,306 4.7 -20.6°
